{"data":{"norad_id":63844,"epoch":"2026-05-25T00:39:51.279840Z","epoch_age_seconds":83405,"freshness":"FRESH","line1":"1 63844U 25093J   26145.02767685  .00014086  00000+0  52007-3 0  9998","line2":"2 63844  43.0005   7.0812 0001798 268.4504  91.6141 15.27602072 59649","mean_motion":15.27602072,"eccentricity":0.0001798,"inclination_deg":43.0005,"raan_deg":7.0812,"arg_perigee_deg":268.4504,"mean_anomaly_deg":91.6141,"bstar":0.00052007,"rev_number":5964,"period_min":94.265386673291,"perigee_km":481.74937595012,"apogee_km":484.21663470404,"semimajor_km":6861.1200053271,"source":"CELESTRAK","updated_at":"2026-05-25T13:38:20.147548Z"}}